This demonstration page uses our WeatherBlox Daily Observations layout. Learn more.

Left ArrowRight Arrow

Hourly Observations for August 20, 2020

Temp ( °F °C ) Dew Point ( °F °C ) Humidity (%) Winds ( mph kmh ) Pressure ( in mb ) Visibility ( mi km ) Precip ( " mm )
12:51 am 00:51 Clear 87 30.6 46 7.8 24 24 Calm 29.7 1006 10 16.0934 0 0
1:51 am 01:51 Clear 83 28.3 45 7.2 26 26 E 9 15 29.69 1006 10 16.0934 0 0
2:51 am 02:51 Clear 88 31.1 45 7.2 22 22 E 8 13 29.68 1005 10 16.0934 0 0
3:51 am 03:51 Clear 86 30 46 7.8 25 25 SSE 6 9 29.69 1005 10 16.0934 0 0
4:51 am 04:51 Mostly Clear 84 28.9 46 7.8 27 27 NW 7 11 29.7 1006 10 16.0934 0 0
5:51 am 05:51 Sunny 82 27.8 47 8.3 29 29 S 5 7 29.73 1007 10 16.0934 0 0
6:51 am 06:51 Sunny 84 28.9 45 7.2 25 25 SSE 5 7 29.74 1007 10 16.0934 0 0
7:51 am 07:51 Sunny 87 30.6 45 7.2 23 23 Calm 29.74 1007 10 16.0934 0 0
8:51 am 08:51 Sunny 92 33.3 46 7.8 21 21 NNW 3 6 29.74 1007 10 16.0934 0 0
9:51 am 09:51 Sunny 95 35 46 7.8 19 19 WSW 6 9 29.72 1007 10 16.0934 0 0
10:51 am 10:51 Sunny 99 37.2 46 7.8 16 16 W 8 13 29.7 1006 10 16.0934 0 0
11:51 am 11:51 Sunny 101 38.3 46 7.8 15 15 W 7 11 29.67 1005 10 16.0934 0 0
12:51 pm 12:51 Sunny 104 40 49 9.4 16 16 W 13 20 29.63 1004 10 16.0934 0 0
1:51 pm 13:51 Sunny 107 41.7 48 8.9 14 14 W 16 26 29.6 1002 10 16.0934 0 0
2:51 pm 14:51 Sunny 108 42.2 47 8.3 13 13 WNW 14 22 29.55 1001 10 16.0934 0 0
3:44 pm 15:44 Sunny 105 40.6 45 7.2 13 13 NNE 26 43 29.41 996 10 16.0934 0 0
3:51 pm 15:51 Sunny 104 40 45 7.2 13 13 NNE 28 44 29.54 1000 10 16.0934 0 0
4:51 pm 16:51 Sunny 102 38.9 40 4.4 12 12 NNE 18 30 29.53 1000 10 16.0934 0 0
5:51 pm 17:51 Sunny 94 34.4 51 10.6 23 23 W 30 48 29.59 1002 10 16.0934 0 0
6:51 pm 18:51 Sunny 91 32.8 50 10 25 25 WNW 15 24 29.63 1004 10 16.0934 0 0
7:51 pm 19:51 Clear 93 33.9 47 8.3 21 21 WSW 16 26 29.66 1004 10 16.0934 0 0
8:51 pm 20:51 Clear 91 32.8 50 10 25 25 ESE 8 13 29.68 1005 10 16.0934 0 0
9:51 pm 21:51 Clear 89 31.7 51 10.6 27 27 ENE 8 13 29.68 1005 10 16.0934 0 0
10:51 pm 22:51 Clear 88 31.1 51 10.6 28 28 NW 23 37 29.69 1006 10 16.0934 0 0
11:51 pm 23:51 Clear 86 30 52 11.1 31 31 NW 23 37 29.69 1005 10 16.0934 0 0

Powered by AerisWeather